Location: Cuzcurrita-R�o Tir�n
(42.5415°N, 2.9642°W)
Time: 01:59:24
(UTC+00:00)

Meteor 1-24 Rocket - Visible Passes

Search period start: 07 May 2021 00:00
Search period end: 17 May 2021 00:00
Orbit: 789 x 928 km, 81.2° (Epoch: 06 May)

Date Brightness Start Highest point End Pass type
(mag) Time Alt. Az. Time Alt. Az. Time Alt. Az.
07 May 6.4 02:22:23 10° E 02:23:58 11° E 02:25:33 10° ENE visible
07 May 3.8 04:00:30 10° S 04:06:14 89° E 04:11:46 10° N visible
08 May 6.5 02:13:15 10° E 02:14:24 11° E 02:15:33 10° ENE visible
08 May 3.8 03:50:55 10° S 03:56:38 87° E 04:02:09 10° N visible
09 May 6.5 02:04:28 10° E 02:04:50 10° E 02:05:12 10° ENE visible
09 May 3.8 03:41:21 10° S 03:47:02 84° E 03:52:32 10° NNE visible
10 May 3.8 03:31:46 10° S 03:37:26 81° E 03:42:55 10° NNE visible
11 May 3.8 03:22:19 11° S 03:27:50 78° E 03:33:18 10° NNE visible
12 May 3.8 03:13:14 13° S 03:18:14 76° E 03:23:41 10° NNE visible
13 May 3.8 03:04:07 16° S 03:08:38 73° E 03:14:03 10° NNE visible
14 May 3.9 02:54:56 19° S 02:59:01 70° E 03:04:26 10° NNE visible
15 May 3.9 02:45:45 21° S 02:49:26 68° E 02:54:48 10° NNE visible
16 May 3.9 02:36:31 24° S 02:39:50 65° E 02:45:10 10° NNE visible
